Temp
65 65 65 65 65 65 65 65 65 64 65 65 66 66 65 65 65 62 56 65 68 70 68 66 66 64 65 59 62 62 49 50 54 51 52 59 59 60 60 60 57 60 60 62 64
64 64 64 64 64 64 64 65 65 64 64 65 65 66 64 64 62 58 67 70 71 69 66 64 62 63 56 55 57 56 46 52 61 57 53 57 58 61 59 57 55 55 60 64 64
64 64 64 64 64 64 64 64 64 64 64 64 65 65 63 63 56 58 69 70 70 69 68 68 66 61 54 55 54 53 48 59 62 61 61 58 57 58 58 53 59 58 58 60 60
63 63 63 63 64 64 64 64 64 63 64 64 64 64 62 62 47 61 69 69 69 67 64 63 62 56 54 52 56 52 57 61 62 64 62 58 59 57 58 59 63 63 64 61 59
62 62 62 63 63 63 64 63 63 63 63 63 64 62 59 53 55 66 67 68 68 64 61 59 56 58 54 56 54 53 56 61 63 62 63 63 58 57 58 59 58 61 63 62 61
61 61 61 62 62 63 63 63 63 63 63 63 64 62 57 49 67 66 65 64 64 62 59 60 58 61 58 56 52 57 57 57 60 61 63 61 58 57 59 57 57 60 59 61 62
61 61 61 61 62 62 62 62 63 62 62 63 64 60 54 55 63 65 65 62 64 64 59 62 63 62 58 55 60 57 53 55 56 59 60 62 57 56 59 57 56 57 59 60 61
60 60 60 60 61 61 62 62 62 62 62 63 63 57 51 63 59 63 66 64 64 64 62 63 63 58 54 57 56 50 48 44 55 58 59 60 51 60 61 58 56 55 56 59 59
58 60 60 60 60 60 61 62 61 62 62 62 54 52 49 61 56 61 60 61 61 61 60 64 58 52 51 47 41 45 38 40 48 57 57 54 50 58 61 58 57 55 55 57 59
57 59 60 60 60 60 60 61 61 60 58 56 56 47 49 49 55 59 58 61 58 57 56 54 53 49 47 47 38 36 40 42 43 53 51 49 50 55 59 58 57 57 56 56 58
55 59 59 59 60 60 59 55 48 46 49 46 46 46 49 53 58 55 57 55 56 55 48 51 47 43 47 49 49 47 44 45 49 56 51 49 52 56 59 53 53 54 54 56 58
56 57 59 59 60 60 56 48 50 48 41 50 49 50 50 54 47 50 57 51 50 46 50 47 44 51 54 51 50 47 46 45 50 54 49 47 48 53 52 56 55 55 55 58 59
56 57 58 59 59 56 52 51 57 53 39 45 48 47 48 51 45 46 54 52 48 45 47 44 48 54 51 49 47 47 45 44 47 49 46 45 45 48 51 56 57 56 59 59 60
56 58 58 58 53 53 48 55 57 51 29 36 42 46 48 48 42 51 54 51 48 45 47 46 54 50 49 47 48 43 49 49 49 45 39 48 38 42 47 53 54 59 61 61 60
54 56 57 58 53 48 53 56 53 50 20 38 41 54 48 46 44 45 51 48 45 45 45 42 45 46 45 47 51 46 51 49 49 45 42 42 39 41 43 45 48 55 58 62 62
55 56 57 55 53 54 56 55 50 30 20 32 42 41 41 44 42 45 45 51 48 44 43 40 46 46 50 53 53 51 49 47 45 43 34 40 40 42 44 47 50 57 56 61 62
56 56 55 57 48 56 55 48 30 24 30 31 35 40 40 39 40 41 40 39 39 34 35 41 42 47 51 48 53 49 44 33 32 31 32 39 36 46 46 49 54 57 55 54 54
56 56 56 56 55 56 51 37 24 22 25 40 40 40 36 37 37 40 38 36 42 39 39 34 32 42 51 48 45 46 46 36 28 30 33 33 33 41 51 56 53 53 53 51 52
55 52 50 52 56 54 41 28 28 25 33 35 38 33 34 38 36 36 36 37 42 42 36 34 34 46 49 50 52 45 40 47 32 19 26 30 36 45 48 49 49 50 51 51 51
49 47 47 54 56 48 36 30 32 35 38 40 31 35 29 33 34 33 33 42 41 43 43 38 33 43 47 50 53 49 53 39 36 26 21 29 30 42 46 51 51 47 52 52 50
47 40 48 54 52 41 31 31 33 38 42 38 31 31 33 32 35 33 32 39 45 42 44 40 35 38 45 43 44 41 44 42 44 33 29 24 34 40 52 50 52 54 55 54 51
43 33 48 51 37 36 32 34 40 36 37 37 36 37 35 35 33 34 33 38 46 45 38 43 35 32 38 45 47 49 46 45 38 29 29 32 41 44 46 46 54 58 51 50 49
38 39 48 48 30 30 31 33 36 35 35 35 34 36 37 34 31 35 35 43 45 45 41 41 33 30 33 37 43 44 46 48 40 40 30 31 38 45 43 45 48 50 50 50 49
39 32 34 39 35 30 30 30 31 36 35 37 36 38 35 33 36 33 34 42 43 46 48 46 34 32 31 37 42 40 44 47 46 39 41 40 46 46 44 43 44 48 50 50 49
34 34 36 28 26 34 32 32 31 30 34 36 33 35 34 30 34 30 37 38 42 44 42 42 33 34 38 38 41 43 44 46 43 47 42 47 43 44 47 45 45 47 49 49 49
30 32 33 33 33 34 34 30 34 31 33 31 32 34 35 31 34 32 36 37 35 38 38 37 32 35 34 38 40 38 45 46 46 48 41 40 40 50 49 46 46 48 48 49 50
32 35 36 35 31 29 27 30 32 34 34 36 35 34 33 36 40 42 43 43 41 36 33 32 31 31 31 35 37 34 41 44 45 49 50 41 50 46 45 47 48 48 48 50 51
MSLP
1013.33 1013.71 1014.03 1014.51 1014.92 1015.47 1015.86 1016.19 1016.35 1016.70 1016.87 1017.25 1017.32 1017.52 1017.63 1018.11 1018.53 1018.97 1018.75 1018.00 1017.74 1017.72 1017.80 1017.90 1018.44 1018.48 1017.97 1018.94 1019.52 1019.75 1020.22 1019.50 1018.68 1018.14 1017.61 1017.30 1017.16 1017.41 1017.60 1018.15 1018.59 1018.78 1018.96 1019.00 1019.87
1012.59 1013.00 1013.44 1013.89 1014.33 1014.90 1015.38 1015.75 1016.05 1016.37 1016.65 1016.88 1017.18 1017.30 1017.60 1018.00 1018.63 1018.36 1017.71 1017.64 1017.75 1017.97 1018.25 1018.24 1018.59 1018.83 1019.40 1019.93 1020.33 1020.77 1020.80 1019.32 1018.14 1017.66 1017.55 1017.37 1017.26 1017.36 1017.80 1018.37 1018.65 1018.91 1019.09 1019.25 1020.00
1011.67 1012.14 1012.62 1013.12 1013.73 1014.32 1014.87 1015.26 1015.68 1015.93 1016.27 1016.54 1016.83 1017.11 1017.66 1017.97 1018.59 1016.95 1017.17 1017.30 1017.63 1017.96 1018.25 1018.19 1018.41 1019.21 1020.03 1020.35 1020.52 1020.64 1020.77 1019.43 1018.29 1017.85 1017.39 1017.29 1017.22 1017.28 1017.66 1018.40 1018.16 1018.44 1019.15 1019.68 1020.29
1010.69 1011.24 1011.84 1012.40 1013.01 1013.71 1014.34 1014.83 1015.15 1015.58 1015.94 1016.10 1016.36 1016.85 1017.53 1017.93 1017.52 1015.81 1016.04 1016.68 1017.29 1017.87 1018.36 1018.37 1018.63 1019.12 1019.84 1020.36 1019.95 1019.65 1020.09 1019.52 1018.63 1017.94 1017.65 1017.29 1017.28 1017.34 1017.54 1017.30 1017.22 1017.71 1018.05 1019.31 1020.16
1009.44 1010.21 1010.99 1011.65 1012.24 1013.05 1013.80 1014.31 1014.76 1015.13 1015.64 1015.86 1016.17 1016.64 1017.54 1017.30 1015.96 1015.49 1015.61 1015.89 1016.99 1018.00 1018.35 1018.68 1018.72 1018.91 1019.46 1019.55 1019.93 1019.54 1019.54 1019.43 1018.86 1018.38 1017.81 1017.41 1017.25 1017.38 1017.46 1017.27 1017.48 1018.02 1018.75 1019.16 1019.77
1008.34 1009.09 1009.91 1010.82 1011.46 1012.21 1013.15 1013.82 1014.33 1014.77 1015.19 1015.57 1015.82 1016.56 1017.10 1016.20 1015.41 1015.45 1015.73 1016.40 1016.94 1017.70 1018.14 1018.46 1018.51 1018.49 1018.70 1019.04 1019.44 1019.06 1019.17 1019.19 1019.13 1018.27 1018.03 1017.71 1017.45 1017.47 1017.09 1017.50 1018.11 1018.38 1018.75 1019.17 1019.36
1007.08 1007.98 1008.87 1009.88 1010.70 1011.38 1012.40 1013.29 1013.83 1014.37 1014.86 1015.20 1015.48 1016.24 1016.40 1014.67 1015.50 1015.48 1016.03 1016.53 1016.79 1016.90 1017.54 1017.93 1018.15 1018.13 1018.41 1018.70 1018.84 1019.03 1019.35 1019.26 1018.62 1018.43 1018.33 1017.81 1017.53 1017.23 1017.19 1017.82 1018.33 1018.66 1018.87 1019.16 1019.23
1005.62 1006.84 1007.91 1008.85 1009.91 1010.63 1011.68 1012.78 1013.45 1014.05 1014.55 1015.08 1015.53 1016.44 1015.51 1015.22 1015.87 1015.79 1015.62 1016.39 1016.66 1017.12 1017.47 1017.76 1018.04 1018.41 1018.39 1018.33 1018.62 1019.06 1019.44 1019.07 1018.13 1018.23 1018.09 1018.05 1017.04 1016.75 1017.19 1017.77 1018.52 1018.69 1018.82 1019.03 1019.12
1004.67 1005.57 1006.93 1007.90 1009.02 1010.15 1010.95 1012.26 1013.17 1013.89 1014.47 1015.11 1016.08 1016.33 1016.04 1015.56 1015.79 1015.67 1015.77 1015.89 1016.59 1017.03 1017.47 1017.98 1018.39 1018.80 1018.83 1018.94 1019.43 1019.34 1019.11 1018.79 1018.24 1017.79 1018.25 1018.32 1017.50 1016.70 1016.84 1017.51 1018.13 1018.36 1018.67 1018.69 1018.75
1004.37 1004.38 1005.92 1006.82 1008.15 1009.55 1010.49 1011.91 1013.07 1013.97 1014.74 1015.61 1016.23 1017.24 1015.93 1014.79 1015.12 1015.41 1015.79 1015.81 1016.16 1017.02 1017.74 1018.16 1018.48 1018.63 1018.73 1018.87 1017.32 1018.73 1019.04 1018.49 1018.05 1017.70 1018.32 1018.38 1017.34 1017.08 1016.95 1017.49 1017.67 1017.78 1018.06 1018.18 1018.19
1003.67 1002.98 1004.88 1005.62 1007.27 1008.89 1010.45 1012.14 1013.82 1014.56 1014.12 1013.12 1013.47 1013.84 1013.68 1014.88 1015.17 1015.42 1015.75 1016.11 1016.28 1016.96 1016.69 1017.08 1017.34 1016.58 1016.63 1016.77 1017.87 1018.20 1018.49 1017.91 1017.50 1017.46 1017.51 1017.65 1017.17 1017.10 1016.86 1017.24 1017.38 1017.60 1017.65 1017.46 1017.31
1002.76 1002.73 1003.22 1004.95 1006.56 1008.24 1009.42 1010.06 1009.98 1010.79 1013.02 1013.59 1013.76 1014.72 1014.61 1014.65 1015.50 1015.50 1015.60 1016.31 1016.24 1015.82 1016.30 1016.71 1015.62 1015.84 1016.74 1017.44 1017.76 1017.83 1017.99 1017.46 1017.63 1017.11 1017.45 1017.63 1017.07 1016.80 1016.77 1016.54 1016.48 1016.71 1016.77 1016.49 1016.60
1001.39 1001.15 1002.79 1004.27 1006.14 1007.79 1008.19 1008.74 1010.24 1010.58 1012.83 1013.87 1014.04 1014.24 1014.57 1014.89 1015.16 1015.33 1015.67 1015.69 1015.67 1015.92 1015.66 1015.45 1014.46 1015.56 1016.12 1016.53 1017.28 1017.15 1017.07 1017.27 1017.23 1017.71 1017.95 1018.14 1017.30 1016.66 1016.13 1015.77 1015.74 1015.47 1015.43 1015.49 1015.37
999.46 999.94 1001.71 1003.68 1006.31 1006.72 1008.00 1009.04 1009.84 1010.61 1012.49 1013.27 1013.80 1013.74 1014.34 1014.79 1015.16 1014.91 1015.12 1015.47 1016.00 1015.49 1015.30 1015.55 1014.99 1015.35 1015.64 1015.83 1016.50 1016.70 1016.67 1017.24 1017.89 1018.35 1018.61 1018.62 1016.91 1015.76 1015.39 1014.90 1014.74 1014.33 1014.22 1014.28 1014.34
998.85 998.62 1000.45 1002.36 1003.03 1005.20 1005.99 1008.31 1009.72 1010.60 1011.84 1011.75 1012.88 1012.77 1013.52 1014.47 1014.58 1015.43 1015.27 1015.71 1015.28 1015.20 1015.68 1015.20 1015.10 1015.48 1014.99 1014.40 1015.33 1015.31 1016.51 1017.28 1017.97 1018.31 1018.76 1018.78 1018.32 1014.88 1014.90 1014.62 1014.13 1013.35 1012.92 1012.92 1012.93
997.76 997.62 999.85 1002.28 1003.64 1005.38 1006.51 1008.38 1010.13 1011.21 1010.71 1011.22 1011.43 1012.29 1013.44 1013.98 1014.63 1015.34 1015.61 1015.63 1015.64 1016.06 1016.40 1016.17 1015.96 1015.41 1014.22 1014.72 1015.35 1016.09 1016.75 1017.53 1018.23 1018.70 1018.50 1017.84 1017.77 1014.17 1013.98 1013.57 1012.86 1012.22 1011.95 1011.96 1012.09
996.42 996.11 999.23 1000.75 1001.74 1004.07 1006.19 1008.49 1009.59 1009.44 1010.35 1010.83 1010.55 1011.35 1012.39 1013.12 1014.34 1014.56 1014.95 1014.93 1015.05 1016.08 1015.83 1015.78 1015.74 1015.41 1014.51 1014.21 1014.78 1015.72 1016.45 1017.59 1018.45 1019.28 1018.00 1017.18 1017.71 1013.08 1012.63 1012.08 1011.59 1011.14 1011.29 1011.50 1011.63
994.93 996.11 998.84 1000.25 1002.03 1003.61 1005.81 1007.89 1008.09 1009.05 1009.69 1009.66 1009.98 1011.30 1011.91 1012.88 1013.50 1013.74 1014.58 1014.67 1015.07 1015.05 1015.05 1015.28 1015.45 1014.61 1012.91 1012.71 1013.05 1013.70 1014.65 1015.06 1016.69 1017.74 1017.69 1017.54 1015.37 1012.54 1011.42 1011.00 1010.83 1010.85 1010.70 1010.98 1011.27
992.99 996.37 998.33 1000.08 1001.54 1003.17 1005.35 1006.55 1006.83 1007.80 1008.47 1009.07 1010.24 1011.11 1011.79 1012.52 1013.33 1014.04 1013.89 1013.77 1014.09 1014.12 1014.67 1015.08 1014.59 1013.34 1012.98 1012.27 1012.48 1012.99 1013.38 1014.27 1016.07 1018.16 1017.71 1016.71 1014.43 1012.80 1011.35 1010.64 1010.50 1010.71 1010.89 1010.73 1011.20
993.63 995.80 998.19 999.72 1001.24 1003.47 1005.11 1005.75 1006.83 1007.15 1007.42 1008.31 1009.30 1010.33 1010.79 1011.85 1012.83 1013.28 1013.43 1012.79 1013.33 1013.63 1013.79 1014.57 1014.29 1012.85 1012.43 1012.07 1011.47 1011.48 1012.30 1014.13 1015.58 1016.94 1017.21 1015.92 1014.39 1011.38 1010.07 1009.68 1010.13 1010.47 1010.39 1010.43 1010.93
993.57 996.26 998.38 999.94 1001.55 1003.46 1004.20 1005.67 1006.59 1007.10 1006.75 1008.07 1008.87 1009.92 1010.62 1011.44 1012.24 1012.56 1012.19 1012.02 1012.23 1012.80 1013.88 1014.03 1014.99 1012.83 1012.67 1010.24 1009.90 1011.64 1011.62 1012.71 1013.80 1014.99 1015.21 1014.73 1012.03 1010.44 1010.14 1009.81 1009.57 1008.98 1009.20 1009.97 1010.65
993.35 995.81 998.01 999.69 1001.33 1003.21 1004.23 1005.24 1005.98 1006.96 1007.15 1007.72 1008.52 1009.46 1010.48 1011.27 1011.95 1012.43 1012.05 1011.62 1011.16 1012.19 1013.07 1013.29 1014.07 1013.17 1011.21 1010.23 1009.63 1009.42 1009.34 1010.92 1011.69 1013.47 1013.66 1013.06 1009.80 1009.10 1009.47 1009.16 1008.69 1007.95 1008.87 1009.77 1010.67
993.95 995.79 998.90 999.49 1000.98 1002.72 1004.37 1005.25 1005.67 1006.64 1007.05 1007.63 1008.50 1008.88 1009.82 1010.77 1011.69 1012.05 1012.16 1011.70 1011.63 1011.80 1011.72 1012.87 1013.47 1012.87 1011.73 1011.00 1009.45 1009.40 1009.59 1009.89 1011.17 1011.66 1012.34 1012.40 1009.07 1008.41 1008.72 1008.93 1008.31 1008.17 1009.29 1009.89 1011.09
993.90 996.54 999.44 1000.47 1001.97 1002.66 1003.84 1005.15 1006.19 1006.60 1007.03 1007.38 1008.36 1008.71 1009.67 1010.46 1010.65 1011.61 1011.93 1011.48 1011.25 1011.07 1011.35 1011.79 1011.83 1011.75 1011.12 1009.15 1008.00 1008.13 1008.36 1008.56 1009.04 1009.68 1009.23 1009.36 1007.48 1008.41 1008.49 1008.53 1008.43 1008.57 1009.34 1010.27 1010.98
994.52 997.09 998.19 1000.67 1002.42 1002.59 1003.73 1004.73 1005.71 1006.45 1006.77 1007.16 1008.37 1008.55 1009.00 1010.15 1010.63 1010.89 1010.91 1011.20 1011.40 1011.25 1011.43 1011.10 1010.97 1011.80 1010.97 1010.18 1008.73 1007.13 1005.28 1005.99 1007.25 1005.90 1007.95 1005.94 1007.75 1008.13 1008.18 1008.31 1008.79 1009.16 1009.45 1010.40 1011.01
995.36 997.63 999.31 1000.92 1002.02 1003.11 1003.83 1004.84 1005.09 1006.11 1006.42 1007.39 1007.84 1008.58 1008.75 1009.26 1009.70 1010.23 1010.32 1010.60 1011.47 1011.91 1012.07 1011.18 1010.47 1010.59 1010.18 1009.73 1008.27 1007.32 1006.67 1006.60 1006.28 1006.23 1007.14 1006.98 1006.93 1006.83 1007.38 1008.01 1008.83 1009.29 1009.95 1010.57 1010.76
996.49 997.22 998.40 1001.44 1002.74 1003.51 1004.43 1005.07 1005.40 1005.61 1007.10 1007.08 1007.62 1008.18 1008.51 1008.76 1009.19 1009.20 1009.67 1010.26 1010.68 1011.75 1012.29 1012.05 1011.38 1010.77 1009.12 1008.97 1008.47 1006.91 1005.54 1005.19 1004.66 1005.20 1004.89 1005.91 1003.84 1006.53 1007.15 1007.51 1007.98 1008.55 1009.37 1009.80 1009.83
Wind_Speed
24 22 20 22 20 18 16 15 13 11 11 12 11 10 11 9 8 3 6 8 3 4 2 4 5 5 4 5 4 4 2 2 4 5 1 5 2 1 1 6 0 1 6 5 15
26 25 22 22 21 19 18 17 15 13 12 12 12 11 10 12 3 10 6 10 7 3 4 6 3 3 4 3 2 4 1 5 2 4 3 3 3 7 4 3 1 0 2 13 16
27 25 25 23 21 21 19 19 17 14 12 12 12 12 13 9 2 8 15 12 8 6 3 3 5 2 3 1 4 5 4 3 4 2 2 1 1 1 8 4 7 9 10 13 13
28 27 26 24 23 21 21 20 18 16 14 12 12 14 17 6 13 5 20 20 12 4 2 3 3 4 5 5 2 8 7 5 5 4 3 0 2 3 6 5 4 10 20 15 15
30 28 27 26 24 22 22 21 19 16 15 14 14 12 8 8 10 2 13 19 14 7 8 6 5 5 5 5 4 4 7 9 7 7 7 5 4 4 6 2 3 11 13 17 15
32 30 28 27 25 24 23 22 20 17 15 14 14 20 8 19 5 3 5 8 9 12 8 8 8 7 4 7 5 7 8 5 7 7 6 4 4 2 3 5 7 12 14 15 16
34 31 30 29 27 26 24 22 19 17 15 13 13 13 8 22 2 2 7 7 8 16 9 7 5 8 6 6 6 5 6 1 4 4 5 5 6 9 4 5 9 10 11 13 13
35 32 31 29 27 27 24 22 20 16 14 12 12 9 10 2 1 3 9 5 9 7 5 3 3 2 2 2 2 5 1 5 4 4 6 6 12 8 8 9 10 9 9 12 12
34 35 32 30 28 27 26 22 18 15 14 10 4 6 10 4 11 4 3 10 10 6 7 4 4 5 3 6 1 4 5 4 3 8 4 7 6 9 5 10 10 10 10 11 12
30 37 35 32 29 28 26 21 16 10 8 4 4 3 5 13 5 4 2 5 9 9 5 8 6 6 4 11 22 7 9 5 8 9 6 7 13 8 3 8 11 11 11 12 13
26 38 35 32 30 29 22 12 8 3 11 20 12 3 1 6 4 7 6 4 5 10 16 15 11 15 25 22 8 8 6 13 9 6 5 13 17 13 13 4 8 9 8 11 15
27 30 32 33 32 31 19 15 26 4 12 11 4 11 2 2 5 4 10 10 10 17 16 9 21 20 17 11 14 9 14 14 4 6 6 6 16 13 8 10 10 10 11 13 10
32 39 36 34 34 25 22 22 14 5 7 14 6 8 5 4 4 11 11 9 9 17 20 21 19 17 18 17 18 16 19 12 7 2 1 2 15 12 8 16 9 9 11 11 15
30 45 38 36 27 19 19 16 16 4 6 4 14 7 7 7 4 3 11 7 7 16 24 16 22 13 18 21 15 21 10 8 10 7 7 7 9 7 7 18 12 18 17 17 14
27 38 39 38 22 24 23 16 10 4 8 11 11 8 10 12 9 5 1 2 15 17 4 6 11 24 20 22 26 15 6 7 8 9 3 5 5 7 3 9 9 17 17 17 17
27 42 41 27 13 17 19 16 7 7 9 8 13 18 16 15 5 7 5 1 3 2 7 6 6 9 19 22 20 4 8 3 4 3 8 16 12 9 9 10 8 13 13 18 17
33 45 38 19 21 22 21 14 12 8 1 10 15 22 23 13 15 11 15 15 15 14 14 7 12 10 8 18 19 13 14 4 7 5 8 9 9 17 6 10 12 13 10 10 10
53 44 33 13 20 25 16 14 11 6 7 7 12 19 23 10 15 10 15 15 15 4 8 15 12 17 19 15 12 28 20 8 7 10 8 3 13 9 12 14 10 11 9 7 10
40 20 17 17 23 20 18 18 8 8 9 12 17 17 13 12 7 7 10 12 16 17 15 9 11 8 12 10 22 21 18 9 6 2 4 6 9 8 11 11 9 9 7 7 8
19 15 14 24 24 19 15 7 4 7 12 15 7 9 10 18 11 16 15 16 16 19 9 7 5 13 20 6 20 14 24 13 3 6 5 5 7 13 11 18 11 10 15 10 8
14 13 14 21 15 17 17 4 6 5 16 12 6 7 7 11 12 11 7 3 24 19 16 7 3 3 19 20 21 6 18 5 4 5 6 3 11 7 17 10 13 16 17 12 10
7 7 17 18 13 8 11 12 6 8 2 6 7 7 10 10 15 14 13 9 15 18 19 16 5 7 27 5 10 27 17 25 14 8 4 1 15 4 9 7 13 12 8 6 7
8 8 12 14 7 8 6 6 5 6 5 5 5 4 5 9 7 7 4 6 3 15 16 14 6 8 6 8 3 24 16 22 4 3 8 8 10 0 4 7 7 8 6 7 6
9 11 4 5 1 9 13 7 7 3 5 6 7 6 6 5 4 10 9 6 5 15 14 21 7 7 10 25 16 32 28 27 29 17 25 21 23 6 5 4 3 3 6 7 8
5 6 3 10 5 15 7 7 14 7 4 5 4 6 8 5 6 5 7 5 4 2 3 14 11 15 20 20 17 29 38 34 30 36 23 31 18 4 5 6 5 5 7 6 7
7 8 4 8 13 15 6 8 18 5 8 4 8 8 7 9 8 10 9 3 3 3 3 4 4 13 15 17 20 14 25 22 28 25 7 7 9 8 5 7 5 6 7 8 8
1 4 8 10 9 9 5 8 8 11 4 7 10 7 6 5 6 5 5 5 10 6 2 1 5 4 16 7 11 23 25 26 28 26 29 19 25 7 5 8 10 10 10 13 11
Wind_Direction
218 217 223 219 208 205 212 220 218 208 225 230 217 202 183 168 132 138 214 220 202 184 110 109 46 342 30 71 11 39 28 234 219 172 212 315 131 36 53 117 33 164 157 191 135
218 216 214 217 214 207 208 211 219 210 210 226 215 201 178 149 161 224 220 240 247 154 164 161 150 54 33 69 46 43 162 239 240 173 158 287 193 162 127 136 277 310 28 131 144
215 214 215 212 215 214 207 208 210 210 207 214 218 203 158 142 226 229 208 227 221 205 264 170 132 101 87 259 203 104 241 338 296 265 166 260 268 199 127 226 208 189 159 150 157
212 212 213 209 210 211 210 208 205 207 205 212 216 208 155 163 227 197 192 207 207 180 242 178 151 167 142 196 212 112 264 271 302 320 289 324 265 235 191 221 230 180 166 154 172
209 207 207 206 204 208 210 207 207 209 206 205 212 189 153 210 222 35 207 198 184 154 191 188 165 168 199 172 117 207 196 285 299 293 285 308 273 234 234 264 105 129 165 174 181
208 203 201 202 201 200 207 206 204 207 212 204 215 166 197 225 99 71 72 155 177 168 188 175 199 190 198 174 189 207 155 211 296 304 289 257 271 143 283 128 129 156 180 186 189
206 201 198 199 199 194 200 203 200 200 208 204 210 170 216 218 51 292 145 182 191 186 180 191 229 179 157 137 236 150 152 227 225 249 247 209 266 221 193 150 166 185 191 194 206
203 199 195 194 197 191 191 196 196 193 201 202 200 185 232 161 162 314 184 181 172 200 227 140 111 211 176 135 113 151 186 183 191 166 233 158 258 251 185 161 205 205 200 204 209
225 197 192 189 190 192 182 189 187 186 193 192 124 210 221 123 207 208 232 186 176 191 181 94 91 178 132 128 67 237 215 205 267 178 205 199 248 237 175 180 212 210 208 213 224
240 196 188 184 184 186 175 174 184 175 183 77 53 145 192 213 153 166 173 202 177 160 193 189 181 188 163 186 212 187 209 193 203 189 180 215 249 263 254 191 218 218 214 212 221
236 188 185 179 180 178 161 154 148 189 182 190 194 174 63 127 75 194 171 170 115 185 202 194 203 211 198 208 213 168 221 215 218 222 157 216 247 240 253 222 240 234 230 222 220
221 206 181 178 176 173 164 181 183 156 187 219 98 184 86 139 139 208 148 183 189 206 196 199 227 217 203 201 203 188 211 218 222 170 151 252 261 249 228 238 213 214 229 231 234
236 201 179 173 172 171 180 186 166 109 131 204 210 191 155 148 167 187 180 193 207 230 198 224 220 216 196 188 199 212 208 202 203 129 34 13 270 254 241 245 238 231 223 226 221
232 184 174 167 166 174 185 169 170 131 102 215 201 241 175 149 229 165 203 169 211 222 236 217 237 213 203 202 191 217 183 193 195 141 221 169 269 239 230 244 216 234 236 237 229
206 172 169 166 166 179 171 162 133 61 200 174 173 155 149 181 130 201 191 130 207 207 184 200 190 211 219 192 194 234 147 168 194 192 146 206 257 255 185 252 233 236 236 233 225
194 169 165 171 161 164 144 145 125 157 211 159 143 168 161 185 167 128 155 89 35 151 192 239 311 268 211 202 196 132 136 78 61 205 221 209 209 222 210 209 226 238 233 231 227
201 161 164 167 166 150 144 145 183 207 233 161 168 169 179 169 180 166 180 181 183 190 223 219 254 269 197 189 186 177 160 184 196 210 230 192 210 243 209 221 218 224 242 231 221
176 156 168 156 144 147 155 167 196 127 174 162 160 167 182 144 216 175 164 198 209 179 205 220 234 211 185 204 174 193 190 173 192 194 209 84 233 242 225 231 224 224 234 269 230
151 155 150 147 149 149 162 183 172 172 168 141 143 168 177 173 158 170 204 193 193 193 194 181 228 192 214 184 181 192 200 181 89 23 82 205 282 287 253 262 248 233 232 238 248
156 140 147 149 149 153 170 155 131 150 126 140 132 180 168 174 166 180 176 204 202 188 190 170 260 200 211 183 207 183 189 193 180 158 231 242 278 235 211 220 232 215 223 219 217
131 134 144 143 146 166 180 136 135 160 127 154 150 118 163 167 185 189 205 237 197 188 194 174 204 263 198 207 178 171 196 177 162 166 206 238 251 204 223 224 225 224 211 202 197
111 114 145 147 154 168 165 146 140 139 124 117 97 100 152 151 178 191 209 208 200 172 191 193 169 228 214 199 232 199 192 193 194 201 225 240 252 150 246 283 247 228 189 189 199
99 108 137 157 156 140 131 119 100 127 138 123 117 138 159 143 130 180 170 262 210 185 189 154 201 255 202 255 287 196 209 192 152 194 209 209 256 79 315 263 217 178 181 174 196
120 127 68 127 334 124 135 129 110 61 93 104 115 89 116 142 157 162 198 202 221 205 216 165 168 217 238 215 182 190 198 193 199 206 219 218 239 268 295 287 263 164 163 173 181
54 105 98 150 189 142 107 142 134 132 101 131 64 154 146 137 167 201 174 150 216 178 308 178 187 203 242 271 199 210 196 196 196 214 207 227 233 208 251 235 233 214 166 172 191
109 139 71 100 113 131 123 179 160 117 132 184 131 177 168 146 184 186 164 146 177 75 276 337 215 174 231 239 208 216 207 198 209 212 246 170 247 196 184 121 154 188 183 195 209
86 54 106 127 133 121 168 156 165 127 43 134 143 147 177 159 130 115 105 140 157 158 146 326 17 242 221 188 231 211 198 195 207 208 214 207 221 163 186 193 186 189 196 206 207